Location: Gilevgi
(36.8751°N, 30.0581°E)
Time: 09:08:10
(UTC+00:00)

IRS-P3 - Pass Details

Date: 14 March 2026
Orbit: 810 x 816 km, 99.0° (Epoch: 20 April)

Event Time Altitude Azimuth Distance (km) Brightness Sun altitude
Rises 17:09:19 0° 194° (SSW) 3,326 7.4 -13.5°
Reaches altitude 10° 17:11:59 10° 206° (SSW) 2,399 6.8 -14.0°
Maximum altitude 17:16:27 27° 264° (W) 1,520 6.4 -14.9°
Drops below altitude 10° 17:20:56 10° 321° (NW) 2,412 7.3 -15.7°
Sets 17:23:38 0° 333° (NNW) 3,347 7.8 -16.3°
